Location: Chaumontel
(49.1247°N, 2.4324°E)
Time: 00:47:43
(UTC+00:00)

IRIDIUM 103 - Pass Details

Date: 16 May 2025
Orbit: 775 x 779 km, 86.4° (Epoch: 12 June)

Event Time Altitude Azimuth Distance (km) Brightness Sun altitude
Exits shadow 00:54:25 27° 148° (SSE) 1,472 5.4 -20.1°
Maximum altitude 00:57:00 50° 87° (E) 992 5.0 -20.0°
Drops below altitude 10° 01:02:03 10° 13° (NNE) 2,343 8.0 -19.7°
Sets 01:04:27 0° 9° (N) 3,275 9.1 -19.6°
